Beaufort, NC

10:26 PM EST on December 10, 2017 (GMT -0500)
Smith

Weather History for KMRH - August, 2012

Change the Weather History Date:

Friday, August 10, 2012

  Actual Average Record
Temperature  
Mean Temperature 82 °F -  
Max Temperature 87 °F 86 °F 96 °F (2011)
Min Temperature 77 °F 73 °F 64 °F (2002)
Cooling Degree Days 17    
Growing Degree Days 32 (Base 50)    
Moisture  
Dew Point 76 °F    
Average Humidity 81    
Maximum Humidity 90    
Minimum Humidity 72    
Precipitation  
Precipitation 0.53 in - - ()
Sea Level Pressure  
Sea Level Pressure 29.91 in    
Wind  
Wind Speed 18 mph (SW)    
Max Wind Speed 22 mph    
Max Gust Speed 33 mph    
Visibility 8 miles    
Events Rain    
Averages and records for this station are not official NWS values.
T = Trace of Precipitation, MM = Missing Value Source: NWS Daily Summary

Daily Weather History Graph

Daily Weather History Graph

Search for Another Location

Airport or City:

Trip Planner

Search our weather history database for the weather conditions in past years. The results will help you decide how hot, cold, wet, or windy it might be!

Date:

Astronomy

Aug. 10, 2012 Rise Set
Actual Time 6:23 AM EDT 7:59 PM EDT
Civil Twilight 5:56 AM EDT 8:26 PM EDT
Nautical Twilight 5:24 AM EDT 8:58 PM EDT
Astronomical Twilight 4:49 AM EDT 9:33 PM EDT
Moon 12:13 AM EDT (8/10) 2:34 PM EDT (8/10)
Length of Visible Light 14h 29m
Length of Day
13h 35m
Last Quarter, 42% of the Moon is Illuminated
Aug 10
Last Quarter
Aug 17
New
Aug 24
First Quarter
Aug 31
Full
Sep 8
Last Quarter

Hourly Weather History & Observations

Time (EDT) Temp. Heat Index Dew Point Humidity Pressure Visibility Wind Dir Wind Speed Gust Speed Precip Events Conditions
12:56 AM 82.9 °F 90.8 °F 75.9 °F 79% 29.92 in 10.0 mi SW 17.3 mph - N/A   Scattered Clouds
1:56 AM 82.9 °F 90.8 °F 75.9 °F 79% 29.90 in 10.0 mi SW 16.1 mph - N/A   Partly Cloudy
2:56 AM 82.9 °F 90.8 °F 75.9 °F 79% 29.88 in 10.0 mi SSW 18.4 mph - N/A   Mostly Cloudy
3:56 AM 82.9 °F 91.8 °F 77.0 °F 82% 29.88 in 10.0 mi SSW 19.6 mph 26.5 mph 0.00 in   Scattered Clouds
4:21 AM 78.8 °F - 73.4 °F 83% 29.89 in 1.8 mi SSW 20.7 mph 33.4 mph 0.14 in Rain Heavy Rain
4:30 AM 80.6 °F 87.1 °F 77.0 °F 89% 29.88 in 3.0 mi SSW 21.9 mph 29.9 mph 0.20 in Rain Light Rain
4:45 AM 77.0 °F - 73.4 °F 89% 29.90 in 3.0 mi West 17.3 mph 32.2 mph 0.27 in Rain Light Rain
4:48 AM 77.0 °F - 73.4 °F 89% 29.90 in 3.0 mi SW 15.0 mph 25.3 mph 0.31 in Rain Heavy Rain
4:56 AM 77.0 °F - 73.9 °F 90% 29.90 in 3.0 mi SW 18.4 mph 23.0 mph 0.35 in Rain Heavy Rain
5:56 AM 79.0 °F - 73.9 °F 84% 29.91 in 9.0 mi SW 15.0 mph - 0.07 in Rain Light Rain
6:56 AM 80.1 °F 85.1 °F 75.0 °F 85% 29.91 in 9.0 mi SW 15.0 mph - 0.00 in   Partly Cloudy
7:41 AM 82.4 °F 89.5 °F 75.2 °F 79% 29.91 in 10.0 mi SW 16.1 mph 26.5 mph N/A   Mostly Cloudy
7:52 AM 82.4 °F 89.5 °F 75.2 °F 79% 29.91 in 10.0 mi SW 18.4 mph - N/A   Scattered Clouds
8:26 AM 82.4 °F 89.5 °F 75.2 °F 79% 29.92 in 10.0 mi SW 18.4 mph 27.6 mph N/A   Mostly Cloudy
8:34 AM 82.4 °F 89.5 °F 75.2 °F 79% 29.92 in 10.0 mi SW 20.7 mph - N/A   Scattered Clouds
8:56 AM 84.0 °F 91.9 °F 75.0 °F 74% 29.92 in 10.0 mi SW 15.0 mph 25.3 mph N/A   Clear
10:13 AM 82.4 °F 89.5 °F 75.2 °F 79% 29.94 in 8.0 mi WSW 19.6 mph 31.1 mph N/A   Mostly Cloudy
10:22 AM 78.8 °F - 73.4 °F 83% 29.94 in 3.0 mi West 12.7 mph 29.9 mph 0.02 in Rain Rain
10:56 AM 81.0 °F 87.3 °F 75.9 °F 85% 29.93 in 10.0 mi SW 15.0 mph - 0.04 in   Mostly Cloudy
11:56 AM 79.0 °F - 73.9 °F 84% 29.94 in 8.0 mi SSW 12.7 mph - 0.07 in Rain Light Rain
12:56 PM 86.0 °F 96.0 °F 75.9 °F 72% 29.92 in 10.0 mi SW 20.7 mph 25.3 mph 0.00 in   Scattered Clouds
1:56 PM 87.1 °F 98.8 °F 77.0 °F 72% 29.91 in 10.0 mi SSW 17.3 mph 24.2 mph N/A   Clear
2:56 PM 87.1 °F 98.8 °F 77.0 °F 72% 29.90 in 9.0 mi SSW 21.9 mph 28.8 mph N/A   Clear
3:56 PM 86.0 °F 96.9 °F 77.0 °F 74% 29.90 in 9.0 mi SSW 20.7 mph 28.8 mph N/A   Scattered Clouds
4:56 PM 86.0 °F 96.0 °F 75.9 °F 72% 29.91 in 10.0 mi SW 18.4 mph 27.6 mph N/A   Clear
5:56 PM 84.9 °F 96.6 °F 78.1 °F 80% 29.91 in 9.0 mi SSW 13.8 mph 24.2 mph N/A   Partly Cloudy
6:56 PM 84.0 °F 93.7 °F 77.0 °F 79% 29.91 in 9.0 mi SSW 18.4 mph 23.0 mph N/A   Mostly Cloudy
8:56 PM 82.9 °F 90.8 °F 75.9 °F 79% 29.92 in 10.0 mi SSW 17.3 mph 26.5 mph N/A   Clear
9:56 PM 82.9 °F 91.8 °F 77.0 °F 82% 29.95 in 10.0 mi SSW 18.4 mph 26.5 mph N/A   Partly Cloudy
10:56 PM 82.9 °F 92.8 °F 78.1 °F 85% 29.95 in 10.0 mi SSW 19.6 mph 27.6 mph N/A   Mostly Cloudy
11:56 PM 82.9 °F 91.8 °F 77.0 °F 82% 29.94 in 10.0 mi SSW 17.3 mph 25.3 mph N/A   Scattered Clouds